Meteo Giornale » Osservazioni meteo Stati Uniti (USA) » Fort Pierce St Lucie Co
ore: 14:53 - Osservazioni Meteo Fort Pierce St Lucie Co
Lat. 27° 29' N Lon. 80° 22' W Alt. 8 metri s.l.m.
30 °C
Sereno
Temp. 24 Ore
24 °C
31 °C
Nord
0 Km/h
Dew point 25 °C
Umidità 74 %
Visibilità 10 Km
Il sole sorge alle ore 07:00
Il sole tramonta alle ore 19:42
| Data e Ora | Cielo e Fenomeni | T °C | DP °C | Um. % | Pres. hPa | Vis. km | Vento km/h | |
|---|---|---|---|---|---|---|---|---|
| Oggi h: 14:53 | Sereno | 30 | 25 | 74 | 1015 | 10 | N 0 | |
| Oggi h: 13:53 | Sereno | 30 | 25 | 74 | 1016 | 10 | N 11.1 | |
| Oggi h: 12:53 | Nuvoloso | 31 | 24 | 66 | 1016 | 10 | E/NE 13 | |
| Oggi h: 11:53 | Poco Nuvoloso | 31 | 24 | 66 | 1017 | 10 | N 11.1 | |
| Oggi h: 10:53 | Poco Nuvoloso | 31 | 24 | 66 | 1017 | 10 | E/NE 9.3 | |
| Oggi h: 09:53 | Poco Nuvoloso | 30 | 25 | 74 | 1016 | 10 | N 7.4 | |
| Oggi h: 08:53 | Sereno | 27 | 25 | 88 | 1016 | 10 | N 5.5 | |
| Oggi h: 07:53 | Sereno | 25 | 24 | 94 | 1016 | 10 | N 0 | |
| Oggi h: 06:53 | Sereno | 24 | 24 | 100 | 1015 | 10 | N 0 | |
| Oggi h: 05:53 | Sereno | 24 | 24 | 100 | 1015 | 10 | N 0 | |
| Oggi h: 05:28 | Foschia | 24 | 24 | 100 | 1015 | 5 | N 0 | |
| Oggi h: 05:20 | Foschia | 24 | 24 | 100 | 1015 | 2 | N 0 | |
| Oggi h: 04:53 | Sereno | 25 | 24 | 94 | 1015 | 10 | N 0 | |
| Oggi h: 03:53 | Sereno | 25 | 24 | 94 | 1015 | 10 | N 5.5 | |
| Oggi h: 02:53 | Nuvoloso | 26 | 24 | 88 | 1015 | 10 | N 5.5 | |
| Oggi h: 01:53 | Nuvoloso | 26 | 24 | 88 | 1016 | 10 | N 5.5 | |
| Oggi h: 01:01 | Pioggia | 25 | 24 | 94 | 1016 | 10 | N 0 | |
| Oggi h: 00:53 | Pioggia | 25 | 24 | 94 | 1016 | 10 | N 0 | |
| Ieri h: 23:53 | Sereno | 24 | 23 | 94 | 1017 | 10 | N 0 | |
| Ieri h: 22:53 | Poco Nuvoloso | 24 | 23 | 94 | 1017 | 10 | N 0 | |
| Ieri h: 21:53 | Sereno | 25 | 23 | 88 | 1016 | 10 | N 0 | |
| Ieri h: 20:53 | Poco Nuvoloso | 26 | 23 | 83 | 1016 | 10 | E 11.1 | |
| Ieri h: 19:53 | Sereno | 27 | 25 | 88 | 1016 | 10 | N 0 | |
| Ieri h: 18:53 | Sereno | 28 | 25 | 83 | 1016 | 10 | N/NE 7.4 | |
| Ieri h: 17:53 | Poco Nuvoloso | 28 | 25 | 83 | 1016 | 10 | N 7.4 | |
| Ieri h: 16:53 | Sereno | 28 | 26 | 88 | 1016 | 10 | N/NO 7.4 | |
| Ieri h: 15:53 | Pioggia | 27 | 26 | 94 | 1016 | 14 | N/NO 7.4 | |



